SCP
0 0 0 0 0 0 0 0 0 0 0 0 0 0 0 0 0 0 0 0 0 0 0 0 0 0 0 0 0 0 0 0 0 -0 -0 -0 -0 0 0 0 0 0 0
0 0 0 0 0 0 0 0 0 0 0 0 0 0 0 0 0 0 0 0 0 0 0 0 0 0 0 0 0 0 0 -0 0 -0 -0 -0 -0 -0 0 0 0 0 0
0 0 0 0 0 0 0 0 0 0 0 0 0 0 0 0 0 0 0 0 0 0 0 0 0 0 0 0 0 0 0 -0 -0 0 0 -0 -0 -0 -0 0 0 0 0
0 0 0 0 0 0 0 0 0 0 0 0 0 0 0 0 0 0 0 0 0 0 0 0 0 0 0 0 0 0 0 0 0 0 0 0 -0 -0 -0 0 0 0 0
0 0 0 0 0 0 0 0 0 0 0 0 0 0 0 0 0 0 0 0 0 0 0 0 0 0 0 0 0 0 0 0 0 0 0 0 0 -0 -0 -0 -0 0 0
0 0 0 0 0 0 0 0 0 0 0 0 0 0 0 0 0 0 0 0 0 0 0 0 0 0 0 0 0 0 0 0 0 0 0 0 0 -0 -0 -0 -0 0 0
0 0 0 0 0 0 0 0 0 0 0 0 0 0 0 0 0 0 0 0 0 0 0 0 0 0 0 0 0 0 0 0 0 0 0 0 0 0 -0 -0 -0 -0 0
0 0 0 0 0 0 0 0 0 0 0 0 0 0 0 0 0 0 0 0 0 0 0 0 0 0 0 0 0 0 0 0 0 0 0 0 0 0 0 0 -0 -0 0
0 0 0 0 0 0 0 0 0 0 0 0 0 0 0 0 0 0 0 0 0 0 0 0 0 0 0 0 0 0 0 0 0 0 0 0 0 0 0 0 0 0 0
0 0 0 0 0 0 0 0 0 0 0 0 0 0 0 0 0 0 0 0 0 0 0 0 0 0 0 0 0 0 0 0 0 0 0 0 0 0 0 0 0 0 0
0 0 0 0 0 0 0 0 0 0 0 0 0 0 0 0 0 0 0 0 0 0 0 0 0 0 0 0 0 0 0 0 0 0 0 0 0 0 0 0 0 0 0
0 0 0 0 0 0 0 0 0 0 0 0 0 0 0 0 0 0 0 0 0 0 0 0 0 0 0 0 0 0 0 0 0 0 0 0 0 0 0 0 0 0 0
0 0 0 0 0 0 0 0 0 0 0 0 0 0 0 0 0 0 0 0 0 0 0 0 0 0 0 0 0 0 0 0 0 0 0 0 0 0 0 0 0 0 0
0 0 0 0 0 0 0 0 0 0 0 0 0 0 0 0 0 0 0 0 0 0 0 0 0 0 0 0 0 0 0 0 0 0 0 0 0 0 0 0 0 0 0
0 0 0 0 0 0 0 0 0 0 0 0 0 0 0 0 0 0 0 0 0 0 0 0 0 0 0 0 0 0 0 0 0 0 0 0 0 0 0 0 0 0 0
0 0 0 0 0 0 0 0 0 0 0 0 0 0 0 0 0 0 0 0 0 0 0 0 0 0 0 0 0 0 0 0 0 0 0 0 0 0 0 0 0 0 0
0 0 0 0 0 0 0 0 0 0 0 0 0 0 0 0 0 0 0 0 0 0 0 0 0 0 0 0 0 0 0 0 0 0 0 0 0 0 0 0 0 0 0
0 0 0 0 0 0 0 0 0 0 0 0 0 0 0 0 0 0 0 0 0 0 0 0 0 0 0 0 0 0 0 0 0 0 0 0 0 0 0 0 0 0 0
0 0 0 0 0 0 0 0 0 0 0 0 0 0 0 0 0 0 0 0 0 0 0 0 0 0 0 0 0 0 0 0 0 0 0 0 0 0 0 0 0 0 0
0 0 0 0 0 0 0 0 0 0 0 0 0 0 0 0 0 0 0 0 0 0 0 0 0 0 0 0 0 0 0 0 0 0 0 0 0 0 0 0 0 0 0
0 0 0 0 0 0 0 0 0 0 0 0 0 0 0 0 0 0 0 0 0 0 0 0 0 0 0 0 0 0 0 0 0 0 0 0 0 0 0 0 0 0 0
0 0 0 0 0 0 0 0 0 0 0 0 0 0 0 0 0 0 0 0 0 0 0 0 0 0 0 0 0 0 0 0 0 0 0 0 0 0 0 0 0 0 0
0 0 0 0 0 0 0 0 0 0 0 0 0 0 0 0 0 0 0 0 0 0 0 0 0 0 0 0 0 0 0 0 0 0 0 0 0 0 0 0 0 0 0
0 0 0 0 0 0 0 0 0 0 0 0 0 0 0 0 0 0 0 0 0 0 0 0 0 0 0 0 0 0 0 0 0 0 0 0 0 0 0 0 0 0 0
0 0 0 0 0 0 0 0 0 0 0 0 0 0 0 0 0 0 0 0 0 0 0 0 0 0 0 0 0 0 0 0 0 0 0 0 0 0 0 0 0 0 0
0 0 0 0 0 0 0 0 0 0 0 0 0 0 0 0 0 0 0 0 0 0 0 0 0 0 0 0 0 0 0 0 0 0 0 0 0 0 0 0 0 0 0
Wind_Speed
3 3 4 4 4 5 4 4 4 4 4 5 5 5 5 5 5 5 4 4 4 3 2 3 2 2 2 1 1 1 1 1 2 2 2 2 2 3 4 4 4 4 4
2 3 4 4 4 5 4 4 4 4 4 4 4 4 4 5 5 5 5 5 5 4 3 3 3 2 2 1 1 1 1 1 2 2 2 2 2 3 3 4 4 4 4
2 3 3 4 4 4 4 4 4 4 4 4 4 5 4 4 4 4 5 5 4 4 4 4 3 3 2 2 2 1 1 1 1 2 2 2 2 2 3 3 4 4 5
2 3 3 4 4 4 4 4 4 4 4 4 4 4 4 4 4 4 4 4 4 3 3 3 3 4 4 3 2 2 2 1 1 1 2 2 2 2 1 3 4 3 4
2 2 2 2 3 3 4 4 4 4 4 4 4 3 3 3 4 4 4 4 4 3 2 2 3 4 5 4 3 3 2 2 1 1 2 2 2 2 2 2 4 4 4
2 2 2 3 3 3 3 4 4 4 4 4 4 4 3 3 5 6 5 4 4 4 3 2 2 3 4 5 4 4 4 3 3 2 2 3 3 3 2 3 3 3 4
2 2 2 3 3 3 3 4 4 4 4 4 3 3 3 3 5 5 5 3 3 3 3 2 2 2 3 2 3 3 3 4 4 3 3 4 4 3 3 3 3 3 4
2 2 2 3 3 3 3 4 3 3 3 3 3 3 3 3 4 4 4 3 2 2 3 3 3 2 3 3 2 1 2 2 3 2 3 4 3 3 3 3 3 4 5
2 2 2 3 3 3 3 3 3 3 3 3 3 3 3 2 4 4 3 2 2 2 2 2 3 3 5 5 3 2 2 2 3 4 4 4 5 5 3 1 1 2 4
1 1 1 2 3 3 3 3 3 3 3 2 2 2 2 2 3 4 3 2 2 2 1 2 4 4 5 5 3 3 3 3 2 2 2 3 3 4 4 2 2 2 3
1 1 2 2 2 2 3 3 3 3 3 2 2 1 1 2 2 3 3 2 2 2 1 2 2 5 5 5 4 3 4 3 2 2 2 2 2 2 2 2 2 3 3
2 2 2 2 1 2 3 3 3 4 3 2 2 1 0 1 1 2 3 3 2 2 2 1 2 4 4 4 3 3 4 2 1 1 1 2 2 2 2 2 3 3 4
3 3 2 2 2 2 2 3 3 3 3 2 2 1 1 0 1 2 3 3 3 2 2 3 3 4 3 2 3 3 1 0 1 1 2 2 2 2 2 2 3 3 4
3 2 2 2 2 2 1 1 2 2 2 2 2 1 1 1 1 1 1 1 2 1 0 1 2 2 1 1 2 1 0 0 1 1 2 2 2 2 2 2 2 2 3
2 2 2 2 2 1 1 1 1 2 3 3 2 2 2 2 2 2 1 1 1 1 1 1 0 0 0 0 1 1 1 1 1 1 1 2 2 2 2 2 2 2 2
2 2 1 1 1 1 1 1 1 0 1 2 2 2 2 3 3 3 3 3 4 3 2 1 1 1 1 1 1 1 1 1 1 1 2 2 2 3 3 2 2 2 3
2 1 1 1 1 1 1 1 1 1 1 1 1 2 2 3 3 3 3 3 3 2 1 1 2 2 2 2 2 2 2 2 2 2 2 2 2 2 2 3 3 3 4
2 1 1 1 1 0 0 0 0 0 0 1 2 3 3 3 2 3 2 1 1 1 1 1 2 2 2 2 2 2 2 2 2 2 2 2 2 2 3 3 3 4 4
1 1 1 1 1 1 1 1 0 0 0 1 1 2 3 3 3 3 2 0 1 1 1 2 2 2 2 2 2 3 3 3 3 3 3 3 3 3 3 4 4 7 5
1 2 2 1 1 1 1 1 0 0 1 1 1 2 2 2 1 1 1 1 1 1 2 2 2 2 2 2 3 3 3 3 3 3 3 3 3 3 4 5 4 4 4
1 1 2 2 1 1 0 0 0 1 1 1 2 3 4 1 1 2 2 2 2 2 2 2 2 3 3 3 3 3 4 4 4 4 4 4 4 4 4 4 4 4 4
0 0 0 0 0 0 1 0 1 1 1 2 2 3 5 2 1 2 2 3 3 3 3 3 3 3 3 3 3 4 4 5 4 4 4 4 4 4 4 4 4 4 4
0 0 0 1 1 2 1 1 1 1 2 2 2 3 3 2 2 3 3 3 3 3 3 3 4 4 4 4 4 4 5 5 5 5 5 5 4 4 4 5 5 5 5
0 0 0 1 1 1 1 1 2 2 2 2 3 3 3 3 3 4 4 3 3 4 4 4 4 6 7 5 5 5 5 6 6 6 7 6 6 5 5 5 5 6 6
0 0 1 1 1 1 2 2 2 2 3 3 3 3 3 3 3 4 4 3 4 4 5 5 4 5 7 8 7 7 10 14 12 7 6 6 7 7 6 6 6 6 6
0 0 1 1 1 2 2 2 3 3 3 3 3 3 3 4 4 4 4 4 4 4 5 5 6 7 8 7 9 12 15 15 15 15 7 5 6 6 6 6 7 6 6
Wind_Direction
152 152 152 156 152 150 156 166 165 156 155 158 159 156 155 156 154 151 153 151 149 152 152 148 152 139 137 139 138 132 137 155 220 284 294 306 310 318 324 326 325 322 323
148 148 151 151 150 154 161 164 161 160 161 157 152 152 156 158 159 161 163 160 160 166 170 161 167 152 146 155 156 166 184 190 199 259 296 300 294 300 309 321 327 329 319
137 142 149 152 157 162 163 158 158 158 155 151 152 158 159 161 163 166 166 165 168 175 178 175 178 162 173 178 173 183 198 202 200 227 276 287 290 298 315 315 315 313 315
135 145 157 166 164 164 159 157 157 154 154 155 159 160 160 162 166 167 164 163 164 172 179 182 183 184 188 187 187 188 184 186 197 225 265 281 283 290 297 308 316 318 316
138 145 156 153 146 148 153 152 148 150 155 155 153 150 152 159 168 167 165 162 163 167 178 190 197 198 201 200 195 190 185 185 200 232 262 285 291 297 294 294 307 315 306
120 132 122 130 139 145 149 145 145 148 150 150 154 154 159 171 180 182 172 163 169 174 180 190 203 212 215 220 222 217 201 196 204 223 250 261 273 277 280 291 302 317 307
109 116 125 132 140 146 144 140 146 149 145 145 150 155 164 180 190 190 187 164 168 179 185 192 209 213 222 219 236 253 250 245 233 222 234 248 258 259 267 278 280 284 279
111 112 124 131 135 140 142 145 145 145 148 152 162 168 172 192 193 192 188 161 162 181 196 202 204 210 217 208 201 222 241 253 255 247 234 245 254 252 242 252 264 278 280
108 113 122 137 144 149 152 152 149 145 147 154 161 165 172 196 203 194 186 152 162 184 205 205 210 214 232 226 204 214 247 264 271 273 271 275 282 285 279 283 285 293 292
107 121 124 136 149 156 157 148 137 141 142 144 156 159 171 191 209 203 193 164 166 182 202 217 227 230 241 232 208 204 229 246 254 278 288 298 299 294 291 257 242 262 280
84 96 108 120 143 149 144 135 134 133 124 130 140 135 164 194 210 208 202 171 178 189 212 223 240 252 253 250 238 216 232 234 208 223 256 280 291 285 284 271 248 243 252
80 90 98 107 123 123 131 132 130 131 129 134 132 130 187 240 235 236 230 224 208 184 212 227 241 261 266 262 259 256 256 253 189 224 251 267 279 283 284 280 267 256 250
78 81 87 89 89 102 126 139 135 138 144 158 163 180 220 260 254 256 249 243 236 209 216 240 249 260 266 278 292 290 279 236 195 245 262 264 265 269 279 288 287 278 275
81 73 75 86 85 85 105 134 147 161 168 176 180 187 214 255 247 259 262 273 251 232 231 267 277 267 271 298 311 319 338 250 228 242 268 281 282 274 274 276 283 299 296
76 74 70 70 84 90 95 133 162 190 193 188 186 191 194 214 238 252 222 218 206 213 158 130 98 308 267 295 326 330 328 333 305 286 266 277 286 289 283 277 267 273 269
72 72 77 84 89 91 98 68 29 22 286 236 222 217 224 238 252 254 249 246 244 227 181 175 202 215 231 244 252 270 268 269 271 272 275 270 273 276 284 287 276 267 274
71 55 78 83 92 100 108 117 81 19 357 334 314 286 260 257 261 263 263 262 255 224 191 195 213 222 231 237 239 240 246 252 252 255 261 269 272 274 277 280 281 278 278
51 41 55 77 89 100 111 124 151 181 323 323 324 319 324 323 314 311 309 338 289 274 223 224 231 232 231 235 239 242 247 253 249 250 253 257 258 263 269 273 272 269 274
43 33 48 63 69 89 90 86 79 54 301 314 333 333 338 337 335 331 345 73 224 258 263 255 247 244 241 238 241 243 242 245 247 247 248 249 250 253 263 267 267 275 277
43 26 43 64 57 58 74 90 102 241 273 282 285 292 306 315 303 305 299 276 259 260 264 266 263 258 254 248 245 244 246 245 244 243 246 248 246 246 254 260 262 266 268
36 23 29 46 51 43 41 316 268 259 263 275 276 278 282 257 252 262 264 259 254 256 258 260 262 263 259 253 246 245 248 250 244 241 244 246 246 249 253 255 259 261 267
69 59 55 49 25 340 315 295 287 280 277 278 288 296 301 301 267 262 261 261 259 257 255 255 257 255 249 246 247 247 246 248 246 240 242 245 246 250 254 256 259 261 263
106 52 21 357 341 311 334 332 292 278 278 279 284 286 283 276 268 265 266 268 268 266 262 255 255 258 255 249 243 239 242 246 244 237 240 246 248 250 250 252 255 258 260
119 247 277 298 302 292 296 296 288 282 278 276 276 275 272 270 270 270 269 271 272 269 263 256 253 255 259 259 253 247 246 248 243 236 231 234 242 247 248 250 255 257 260
174 262 273 273 280 282 286 286 282 279 278 278 275 274 274 273 273 272 269 267 267 267 267 263 258 256 257 258 258 257 262 265 263 249 230 230 237 239 241 246 252 256 258
148 260 275 277 277 277 277 279 279 278 277 278 276 273 273 272 271 272 271 268 268 269 269 266 260 260 262 263 262 263 268 270 271 268 252 231 232 238 238 244 248 251 254